Lancaster, OH

5:35 PM EDT on April 19, 2018 (GMT -0400)
Fairfield County

Weather History for KLHQ - January, 2012

Change the Weather History Date:

Monday, January 30, 2012

  Actual Average Record
Temperature  
Mean Temperature 34 °F -  
Max Temperature 50 °F 36 °F 66 °F (1975)
Min Temperature 19 °F 18 °F -12 °F (1963)
Degree Days  
Heating Degree Days 30    
Moisture  
Dew Point 22 °F    
Average Humidity 61    
Maximum Humidity 92    
Minimum Humidity 37    
Precipitation  
Precipitation 0.00 in - - ()
Sea Level Pressure  
Sea Level Pressure 30.23 in    
Wind  
Wind Speed 4 mph (South)    
Max Wind Speed 13 mph    
Max Gust Speed 21 mph    
Visibility 10 miles    
Events      
Averages and records for this station are not official NWS values.
T = Trace of Precipitation, MM = Missing Value Source: NWS Daily Summary

Daily Weather History Graph

Daily Weather History Graph

Search for Another Location

Airport or City:

Astronomy

Jan. 30, 2012 Rise Set
Actual Time 7:40 AM EST 5:47 PM EST
Civil Twilight 7:12 AM EST 6:16 PM EST
Nautical Twilight 6:39 AM EST 6:48 PM EST
Astronomical Twilight 6:08 AM EST 7:20 PM EST
Moon 11:03 AM EST (1/30) 12:29 AM EST (1/30)
Length of Visible Light 11h 03m
Length of Day
10h 06m
Waxing Crescent, 46% of the Moon is Illuminated
Jan 30
Waxing Crescent
Jan 30
First Quarter
Feb 7
Full
Feb 14
Last Quarter
Feb 21
New

Hourly Weather History & Observations

Time (EST) Temp. Windchill Dew Point Humidity Pressure Visibility Wind Dir Wind Speed Gust Speed Precip Events Conditions
12:53 AM 25.0 °F - 19.0 °F 78% 30.31 in 10.0 mi Calm Calm - N/A   Clear
1:53 AM 21.9 °F - 19.0 °F 89% 30.30 in 10.0 mi Calm Calm - N/A   Clear
2:53 AM 19.9 °F - 18.0 °F 92% 30.31 in 10.0 mi Calm Calm - N/A   Clear
3:53 AM 21.0 °F - 18.0 °F 88% 30.32 in 8.0 mi Calm Calm - N/A   Clear
4:53 AM 19.9 °F - 17.1 °F 89% 30.33 in 9.0 mi Calm Calm - N/A   Clear
5:53 AM 21.0 °F - 18.0 °F 88% 30.32 in 9.0 mi Calm Calm - N/A   Scattered Clouds
6:53 AM 25.0 °F 20.7 °F 21.0 °F 85% 30.32 in 9.0 mi SSE 3.5 mph - N/A   Overcast
7:53 AM 26.1 °F 21.9 °F 21.0 °F 81% 30.32 in 7.0 mi SSE 3.5 mph - N/A   Overcast
8:53 AM 28.0 °F 21.7 °F 21.0 °F 75% 30.33 in 10.0 mi SSE 5.8 mph - N/A   Overcast
9:53 AM 30.9 °F 24.3 °F 21.0 °F 67% 30.33 in 10.0 mi South 6.9 mph - N/A   Overcast
10:53 AM 34.0 °F 25.0 °F 18.0 °F 52% 30.32 in 10.0 mi South 12.7 mph - N/A   Overcast
12:53 PM 42.1 °F 35.2 °F 18.0 °F 38% 30.24 in 10.0 mi SSE 12.7 mph - N/A   Overcast
1:53 PM 46.0 °F 40.6 °F 21.0 °F 37% 30.19 in 10.0 mi South 11.5 mph - N/A   Overcast
2:53 PM 46.9 °F - 24.1 °F 41% 30.17 in 10.0 mi South 8.1 mph - N/A   Mostly Cloudy
3:53 PM 46.9 °F - 24.1 °F 41% 30.14 in 10.0 mi South 12.7 mph - N/A   Partly Cloudy
4:53 PM 46.9 °F - 25.0 °F 42% 30.14 in 10.0 mi South 6.9 mph - N/A   Overcast
5:53 PM 45.0 °F 42.6 °F 27.0 °F 49% 30.14 in 10.0 mi SE 4.6 mph - N/A   Overcast
6:53 PM 44.1 °F 41.5 °F 26.1 °F 49% 30.13 in 10.0 mi SSE 4.6 mph - N/A   Clear
7:53 PM 50.0 °F - 28.0 °F 43% 30.13 in 10.0 mi SSW 8.1 mph 18.4 mph N/A   Clear
8:53 PM 48.9 °F - 28.0 °F 44% 30.12 in 10.0 mi SSW 11.5 mph - N/A   Clear
9:53 PM 48.9 °F - 28.0 °F 44% 30.13 in 10.0 mi SSW 11.5 mph 18.4 mph N/A   Clear
10:53 PM 48.0 °F - 27.0 °F 44% 30.12 in 10.0 mi SSW 11.5 mph - N/A   Clear
11:53 PM 50.0 °F - 26.1 °F 39% 30.12 in 10.0 mi SSW 12.7 mph 20.7 mph N/A   Clear